sat.trackr.live / text

‹ back to catalog

STARLINK-31700

NORAD 59436 · 2024-065R

PAYLOAD ACTIVE UNKNOWN

§ Identity

Operator
Country
US
Launch date
2024-04-07
Launch site
AFWTR
Launch vehicle
Mass (kg)
RCS (m²)

Purposes: comms

External: N2YO · Heavens-Above · Gunter

§ Orbital elements

Epoch: 2026-09-21T21:29:03.965856Z

Period
93.85 min
Inclination
53.1601°
Eccentricity
0.0001059
Mean motion
15.34390116 rev/d
Perigee alt
462.0 km
Apogee alt
463.5 km
Semi-major
6,840.9 km
B*
3.4316e-5
RAAN
87.1766°
Arg perigee
86.2030°
Mean anomaly
273.9094°
Rev number
13,901

§ Raw data

STARLINK-317001 59436U 24065R   26264.89518479  .00000783  00000+0  34316-4 0  99932 59436  53.1601  87.1766 0001059  86.2030 273.9094 15.34390116139015

JSON: /api/v1/satellites/59436 · /tle

For live sub-satellite position, see the globe view (requires WebGL).

§ Visibility from observer

Set your observer location to see the next 7 days of passes ≥ 10°. The values pass through the URL so the page stays shareable.

No JS? Fill the form by hand. The geolocation button needs JavaScript.